Time,TemperatureF,DewpointF,PressureIn,WindDirection,WindDirectionDegrees,WindSpeedMPH,WindSpeedGustMPH,Humidity,HourlyPrecipIn,Conditions,Clouds,dailyrainin,SoftwareType,DateUTC
2013-07-15 00:04:00,65.2,64.6,28.23,SW,229,2.0,3.0,98,0.01,,---,0.00,VWS V14.01,2013-07-15 05:04:00,
2013-07-15 00:09:00,65.2,64.6,28.23,SW,229,0.0,0.0,98,0.01,,---,0.00,VWS V14.01,2013-07-15 05:09:00,
2013-07-15 00:14:00,65.2,64.6,28.23,SW,229,0.0,1.0,98,0.01,,---,0.00,VWS V14.01,2013-07-15 05:14:00,
2013-07-15 00:20:00,65.3,64.7,28.23,SW,229,0.0,0.0,98,0.02,,---,0.01,VWS V14.01,2013-07-15 05:20:00,
2013-07-15 00:25:00,65.2,64.6,28.23,SW,229,0.0,0.0,98,0.03,,---,0.02,VWS V14.01,2013-07-15 05:25:00,
2013-07-15 00:30:00,65.2,64.6,28.23,SW,229,0.0,0.0,98,0.03,,---,0.02,VWS V14.01,2013-07-15 05:30:00,
2013-07-15 00:35:00,65.3,64.7,28.23,SW,229,0.0,0.0,98,0.03,,---,0.02,VWS V14.01,2013-07-15 05:35:00,
2013-07-15 00:40:00,65.3,64.7,28.23,SW,229,0.0,0.0,98,0.04,,---,0.03,VWS V14.01,2013-07-15 05:40:00,
2013-07-15 00:45:00,65.2,64.6,28.23,SW,229,0.0,0.0,98,0.04,,---,0.03,VWS V14.01,2013-07-15 05:45:00,
2013-07-15 00:50:00,65.2,64.6,28.23,SW,229,0.0,0.0,98,0.04,,---,0.03,VWS V14.01,2013-07-15 05:50:00,
2013-07-15 00:55:00,65.2,64.6,28.23,SW,229,0.0,0.0,98,0.03,,---,0.03,VWS V14.01,2013-07-15 05:55:00,
2013-07-15 01:01:00,65.2,64.6,28.23,SW,229,0.0,0.0,98,0.03,,---,0.03,VWS V14.01,2013-07-15 06:01:00,
2013-07-15 01:06:00,65.2,64.6,28.23,SW,229,0.0,0.0,98,0.03,,---,0.03,VWS V14.01,2013-07-15 06:06:00,
2013-07-15 01:11:00,65.2,64.6,28.23,SW,229,0.0,0.0,98,0.03,,---,0.03,VWS V14.01,2013-07-15 06:11:00,
2013-07-15 01:16:00,65.2,64.6,28.23,SW,229,0.0,0.0,98,0.04,,---,0.04,VWS V14.01,2013-07-15 06:16:00,
2013-07-15 01:21:00,65.2,64.6,28.23,SW,229,0.0,0.0,98,0.03,,---,0.04,VWS V14.01,2013-07-15 06:21:00,
2013-07-15 01:26:00,65.2,64.6,28.23,SW,229,0.0,0.0,98,0.02,,---,0.04,VWS V14.01,2013-07-15 06:26:00,
2013-07-15 01:32:00,65.1,64.5,28.24,SW,229,0.0,1.0,98,0.02,,---,0.04,VWS V14.01,2013-07-15 06:32:00,
2013-07-15 01:37:00,65.1,64.5,28.24,SW,229,0.0,0.0,98,0.03,,---,0.05,VWS V14.01,2013-07-15 06:37:00,
2013-07-15 01:42:00,65.1,64.5,28.24,SW,229,0.0,0.0,98,0.02,,---,0.05,VWS V14.01,2013-07-15 06:42:00,
2013-07-15 01:47:00,65.1,64.5,28.23,SW,229,0.0,0.0,98,0.02,,---,0.05,VWS V14.01,2013-07-15 06:47:00,
2013-07-15 01:52:00,65.1,64.5,28.23,SW,229,0.0,0.0,98,0.02,,---,0.05,VWS V14.01,2013-07-15 06:52:00,
2013-07-15 01:57:00,65.1,64.8,28.23,SW,229,0.0,0.0,99,0.02,,---,0.05,VWS V14.01,2013-07-15 06:57:00,
2013-07-15 02:02:00,65.0,64.7,28.24,SW,229,0.0,0.0,99,0.02,,---,0.05,VWS V14.01,2013-07-15 07:02:00,
2013-07-15 02:08:00,65.0,64.7,28.24,SW,229,0.0,0.0,99,0.02,,---,0.05,VWS V14.01,2013-07-15 07:08:00,
2013-07-15 02:13:00,65.0,64.7,28.24,SW,229,0.0,0.0,99,0.02,,---,0.05,VWS V14.01,2013-07-15 07:13:00,
2013-07-15 02:18:00,65.1,64.8,28.24,SW,229,0.0,0.0,99,0.02,,---,0.06,VWS V14.01,2013-07-15 07:18:00,
2013-07-15 02:23:00,65.0,64.7,28.24,SW,229,0.0,0.0,99,0.02,,---,0.06,VWS V14.01,2013-07-15 07:23:00,
2013-07-15 02:28:00,65.1,64.8,28.24,SW,229,0.0,0.0,99,0.02,,---,0.06,VWS V14.01,2013-07-15 07:28:00,
2013-07-15 02:33:00,65.1,64.8,28.24,SW,229,0.0,0.0,99,0.02,,---,0.06,VWS V14.01,2013-07-15 07:33:00,
2013-07-15 02:38:00,65.1,64.8,28.24,SW,229,0.0,0.0,99,0.02,,---,0.07,VWS V14.01,2013-07-15 07:38:00,
2013-07-15 02:44:00,65.1,64.8,28.24,SW,229,0.0,0.0,99,0.02,,---,0.07,VWS V14.01,2013-07-15 07:44:00,
2013-07-15 02:49:00,65.2,64.9,28.24,SW,229,0.0,0.0,99,0.02,,---,0.07,VWS V14.01,2013-07-15 07:49:00,
2013-07-15 02:54:00,65.2,64.9,28.24,SW,229,0.0,0.0,99,0.02,,---,0.07,VWS V14.01,2013-07-15 07:54:00,
2013-07-15 02:59:00,65.2,64.9,28.24,SW,229,0.0,0.0,99,0.02,,---,0.07,VWS V14.01,2013-07-15 07:59:00,
2013-07-15 03:05:00,65.2,64.9,28.24,SW,229,0.0,0.0,99,0.02,,---,0.07,VWS V14.01,2013-07-15 08:05:00,
2013-07-15 03:10:00,65.2,64.9,28.24,SW,229,0.0,0.0,99,0.02,,---,0.07,VWS V14.01,2013-07-15 08:10:00,
2013-07-15 03:15:00,65.1,64.8,28.24,SW,229,0.0,0.0,99,0.02,,---,0.07,VWS V14.01,2013-07-15 08:15:00,
2013-07-15 03:20:00,65.1,64.8,28.24,SW,229,0.0,0.0,99,0.01,,---,0.07,VWS V14.01,2013-07-15 08:20:00,
2013-07-15 03:25:00,65.1,64.8,28.24,SW,229,0.0,0.0,99,0.01,,---,0.07,VWS V14.01,2013-07-15 08:25:00,
2013-07-15 03:30:00,65.1,64.8,28.24,SW,229,0.0,0.0,99,0.01,,---,0.07,VWS V14.01,2013-07-15 08:30:00,
2013-07-15 03:35:00,65.1,64.8,28.24,SW,229,1.0,1.0,99,0.01,,---,0.07,VWS V14.01,2013-07-15 08:35:00,
2013-07-15 03:40:00,65.0,64.7,28.24,SW,229,0.0,1.0,99,0.00,,---,0.07,VWS V14.01,2013-07-15 08:40:00,
2013-07-15 03:46:00,65.0,64.7,28.24,SW,229,0.0,0.0,99,0.00,,---,0.07,VWS V14.01,2013-07-15 08:46:00,
2013-07-15 03:51:00,65.0,64.7,28.24,SW,229,0.0,0.0,99,0.00,,---,0.07,VWS V14.01,2013-07-15 08:51:00,
2013-07-15 03:56:00,65.0,64.7,28.24,SW,229,0.0,0.0,99,0.00,,---,0.07,VWS V14.01,2013-07-15 08:56:00,
2013-07-15 04:01:00,65.0,64.7,28.24,SW,229,0.0,0.0,99,0.00,,---,0.07,VWS V14.01,2013-07-15 09:01:00,
2013-07-15 04:06:00,64.9,64.6,28.24,SW,229,0.0,2.0,99,0.00,,---,0.07,VWS V14.01,2013-07-15 09:06:00,
2013-07-15 04:11:00,64.9,64.6,28.24,SW,229,0.0,0.0,99,0.00,,---,0.07,VWS V14.01,2013-07-15 09:11:00,
2013-07-15 04:16:00,64.9,64.6,28.23,SW,229,0.0,0.0,99,0.00,,---,0.07,VWS V14.01,2013-07-15 09:16:00,
2013-07-15 04:22:00,64.8,64.5,28.23,SW,229,0.0,0.0,99,0.00,,---,0.07,VWS V14.01,2013-07-15 09:22:00,
2013-07-15 04:27:00,64.8,64.5,28.23,SW,229,0.0,0.0,99,0.00,,---,0.07,VWS V14.01,2013-07-15 09:27:00,
2013-07-15 04:32:00,64.8,64.5,28.23,SW,229,0.0,0.0,99,0.00,,---,0.07,VWS V14.01,2013-07-15 09:32:00,
2013-07-15 04:37:00,64.8,64.5,28.23,SW,229,0.0,0.0,99,0.00,,---,0.07,VWS V14.01,2013-07-15 09:37:00,
2013-07-15 04:42:00,64.8,64.5,28.23,SW,229,0.0,0.0,99,0.00,,---,0.07,VWS V14.01,2013-07-15 09:42:00,
2013-07-15 04:47:00,64.7,64.4,28.23,SW,229,0.0,0.0,99,0.00,,---,0.07,VWS V14.01,2013-07-15 09:47:00,
2013-07-15 04:53:00,64.7,64.4,28.23,SW,229,0.0,0.0,99,0.00,,---,0.07,VWS V14.01,2013-07-15 09:53:00,
2013-07-15 04:58:00,64.7,64.4,28.23,SW,229,0.0,0.0,99,0.00,,---,0.07,VWS V14.01,2013-07-15 09:58:00,
2013-07-15 05:03:00,64.6,64.3,28.24,SW,229,0.0,0.0,99,0.00,,---,0.07,VWS V14.01,2013-07-15 10:03:00,
2013-07-15 05:08:00,64.6,64.3,28.24,SW,229,0.0,0.0,99,0.00,,---,0.07,VWS V14.01,2013-07-15 10:08:00,
2013-07-15 05:13:00,64.6,64.3,28.24,SW,229,0.0,1.0,99,0.00,,---,0.07,VWS V14.01,2013-07-15 10:13:00,
2013-07-15 05:19:00,64.7,64.4,28.24,SW,229,0.0,0.0,99,0.00,,---,0.07,VWS V14.01,2013-07-15 10:19:00,
2013-07-15 05:24:00,64.7,64.4,28.24,SW,229,0.0,0.0,99,0.00,,---,0.07,VWS V14.01,2013-07-15 10:24:00,
2013-07-15 05:29:00,64.7,64.4,28.24,SW,229,0.0,0.0,99,0.00,,---,0.07,VWS V14.01,2013-07-15 10:29:00,
2013-07-15 05:34:00,64.7,64.4,28.24,SW,229,0.0,0.0,99,0.00,,---,0.07,VWS V14.01,2013-07-15 10:34:00,
2013-07-15 05:39:00,64.7,64.4,28.24,SW,229,0.0,0.0,99,0.00,,---,0.07,VWS V14.01,2013-07-15 10:39:00,
2013-07-15 05:45:00,64.7,64.4,28.24,SW,229,0.0,0.0,99,0.00,,---,0.07,VWS V14.01,2013-07-15 10:45:00,
2013-07-15 05:50:00,64.7,64.4,28.25,SW,229,0.0,0.0,99,0.00,,---,0.07,VWS V14.01,2013-07-15 10:50:00,
2013-07-15 05:55:00,64.8,64.5,28.25,SW,229,0.0,0.0,99,0.00,,---,0.07,VWS V14.01,2013-07-15 10:55:00,
2013-07-15 06:00:00,64.8,64.5,28.25,SW,229,0.0,0.0,99,0.00,,---,0.07,VWS V14.01,2013-07-15 11:00:00,
2013-07-15 06:05:00,64.8,64.5,28.25,SW,229,0.0,0.0,99,0.00,,---,0.07,VWS V14.01,2013-07-15 11:05:00,
2013-07-15 06:10:00,64.8,64.5,28.25,SW,229,0.0,0.0,99,0.00,,---,0.07,VWS V14.01,2013-07-15 11:10:00,
2013-07-15 06:15:00,64.8,64.5,28.25,SW,229,0.0,0.0,99,0.00,,---,0.07,VWS V14.01,2013-07-15 11:15:00,
2013-07-15 06:21:00,64.8,64.5,28.26,SW,229,0.0,0.0,99,0.00,,---,0.07,VWS V14.01,2013-07-15 11:21:00,
2013-07-15 06:26:00,64.8,64.5,28.26,SW,229,0.0,0.0,99,0.00,,---,0.07,VWS V14.01,2013-07-15 11:26:00,
2013-07-15 06:31:00,64.9,64.6,28.26,SW,229,0.0,0.0,99,0.00,,---,0.07,VWS V14.01,2013-07-15 11:31:00,
2013-07-15 06:36:00,65.0,64.7,28.26,SW,229,0.0,0.0,99,0.00,,---,0.07,VWS V14.01,2013-07-15 11:36:00,
2013-07-15 06:42:00,65.0,64.7,28.26,SW,229,0.0,0.0,99,0.00,,---,0.07,VWS V14.01,2013-07-15 11:42:00,
2013-07-15 06:47:00,65.2,64.9,28.26,SW,229,0.0,0.0,99,0.00,,---,0.07,VWS V14.01,2013-07-15 11:47:00,
2013-07-15 06:52:00,65.3,65.0,28.26,SW,229,0.0,0.0,99,0.00,,---,0.07,VWS V14.01,2013-07-15 11:52:00,
2013-07-15 06:57:00,65.4,65.1,28.26,SW,229,0.0,0.0,99,0.00,,---,0.07,VWS V14.01,2013-07-15 11:57:00,
2013-07-15 07:02:00,65.5,65.2,28.26,SW,229,0.0,0.0,99,0.00,,---,0.07,VWS V14.01,2013-07-15 12:02:00,
2013-07-15 07:07:00,65.6,65.3,28.26,SW,229,0.0,1.0,99,0.00,,---,0.07,VWS V14.01,2013-07-15 12:07:00,
2013-07-15 07:12:00,65.6,65.3,28.26,SW,229,0.0,0.0,99,0.00,,---,0.07,VWS V14.01,2013-07-15 12:12:00,
2013-07-15 07:18:00,65.7,65.4,28.26,SW,229,0.0,0.0,99,0.00,,---,0.07,VWS V14.01,2013-07-15 12:18:00,
2013-07-15 07:23:00,65.7,65.4,28.26,SW,229,0.0,0.0,99,0.00,,---,0.07,VWS V14.01,2013-07-15 12:23:00,
2013-07-15 07:28:00,65.8,65.5,28.26,SW,229,1.0,1.0,99,0.00,,---,0.07,VWS V14.01,2013-07-15 12:28:00,
2013-07-15 07:33:00,65.7,65.4,28.26,SW,229,0.0,0.0,99,0.00,,---,0.07,VWS V14.01,2013-07-15 12:33:00,
2013-07-15 07:39:00,65.9,65.6,28.26,SW,229,0.0,0.0,99,0.00,,---,0.07,VWS V14.01,2013-07-15 12:39:00,
2013-07-15 07:44:00,65.9,65.6,28.26,SW,229,0.0,0.0,99,0.00,,---,0.07,VWS V14.01,2013-07-15 12:44:00,
2013-07-15 07:49:00,66.0,65.7,28.26,SW,229,0.0,0.0,99,0.00,,---,0.07,VWS V14.01,2013-07-15 12:49:00,
2013-07-15 07:54:00,66.1,65.8,28.26,SW,228,0.0,1.0,99,0.00,,---,0.07,VWS V14.01,2013-07-15 12:54:00,
2013-07-15 08:00:00,66.2,65.9,28.26,SW,217,0.0,1.0,99,0.00,,---,0.07,VWS V14.01,2013-07-15 13:00:00,
2013-07-15 08:05:00,66.3,66.0,28.26,SW,217,0.0,0.0,99,0.00,,---,0.07,VWS V14.01,2013-07-15 13:05:00,
2013-07-15 08:10:00,66.5,66.2,28.26,SSW,203,0.0,0.0,99,0.00,,---,0.07,VWS V14.01,2013-07-15 13:10:00,
2013-07-15 08:15:00,66.5,66.2,28.26,SSW,203,0.0,1.0,99,0.00,,---,0.07,VWS V14.01,2013-07-15 13:15:00,
2013-07-15 08:20:00,66.7,66.4,28.27,SSW,203,0.0,0.0,99,0.00,,---,0.07,VWS V14.01,2013-07-15 13:20:00,
2013-07-15 08:26:00,66.7,66.1,28.27,SSW,203,0.0,0.0,98,0.00,,---,0.07,VWS V14.01,2013-07-15 13:26:00,
2013-07-15 08:31:00,66.8,66.2,28.27,SSW,210,1.0,1.0,98,0.00,,---,0.07,VWS V14.01,2013-07-15 13:31:00,
2013-07-15 08:36:00,66.7,66.1,28.27,South,171,0.0,0.0,98,0.00,,---,0.07,VWS V14.01,2013-07-15 13:36:00,
2013-07-15 08:41:00,66.7,66.1,28.27,South,171,0.0,0.0,98,0.00,,---,0.07,VWS V14.01,2013-07-15 13:41:00,
2013-07-15 08:46:00,66.8,66.2,28.26,South,171,0.0,0.0,98,0.00,,---,0.07,VWS V14.01,2013-07-15 13:46:00,
2013-07-15 08:51:00,66.8,66.2,28.26,South,171,0.0,2.0,98,0.00,,---,0.07,VWS V14.01,2013-07-15 13:51:00,
2013-07-15 08:56:00,66.7,65.8,28.26,SSE,159,1.0,3.0,97,0.00,,---,0.07,VWS V14.01,2013-07-15 13:56:00,
2013-07-15 09:02:00,66.7,65.8,28.26,SSE,159,0.0,0.0,97,0.00,,---,0.07,VWS V14.01,2013-07-15 14:02:00,
2013-07-15 09:07:00,66.8,65.9,28.26,SSE,159,0.0,0.0,97,0.00,,---,0.07,VWS V14.01,2013-07-15 14:07:00,
2013-07-15 09:12:00,66.8,65.9,28.26,SSE,159,0.0,0.0,97,0.00,,---,0.07,VWS V14.01,2013-07-15 14:12:00,
2013-07-15 09:17:00,67.1,66.2,28.26,SSE,159,0.0,0.0,97,0.00,,---,0.07,VWS V14.01,2013-07-15 14:17:00,
2013-07-15 09:22:00,67.4,66.5,28.26,SSE,159,0.0,0.0,97,0.00,,---,0.07,VWS V14.01,2013-07-15 14:22:00,
2013-07-15 09:27:00,67.4,66.2,28.26,SSE,159,0.0,1.0,96,0.00,,---,0.07,VWS V14.01,2013-07-15 14:27:00,
2013-07-15 09:32:00,67.5,66.3,28.26,SSE,159,0.0,1.0,96,0.00,,---,0.07,VWS V14.01,2013-07-15 14:32:00,
2013-07-15 09:37:00,67.6,66.4,28.26,SSE,159,0.0,1.0,96,0.00,,---,0.07,VWS V14.01,2013-07-15 14:37:00,
2013-07-15 09:42:00,67.7,66.2,28.26,SSE,159,0.0,0.0,95,0.00,,---,0.07,VWS V14.01,2013-07-15 14:42:00,
2013-07-15 09:47:00,67.9,66.4,28.26,SSE,159,0.0,1.0,95,0.00,,---,0.07,VWS V14.01,2013-07-15 14:47:00,
2013-07-15 09:52:00,68.1,66.6,28.26,SSE,159,0.0,0.0,95,0.00,,---,0.07,VWS V14.01,2013-07-15 14:52:00,
2013-07-15 09:57:00,68.3,66.8,28.26,SSE,159,0.0,0.0,95,0.00,,---,0.07,VWS V14.01,2013-07-15 14:57:00,
2013-07-15 10:02:00,68.5,67.0,28.26,SSE,159,0.0,0.0,95,0.00,,---,0.07,VWS V14.01,2013-07-15 15:02:00,
2013-07-15 10:08:00,68.7,67.2,28.26,SSE,159,0.0,0.0,95,0.00,,---,0.07,VWS V14.01,2013-07-15 15:08:00,
2013-07-15 10:13:00,68.8,67.3,28.26,SSE,159,0.0,0.0,95,0.00,,---,0.07,VWS V14.01,2013-07-15 15:13:00,
2013-07-15 10:18:00,68.8,67.0,28.26,SSE,159,1.0,1.0,94,0.00,,---,0.07,VWS V14.01,2013-07-15 15:18:00,
2013-07-15 10:23:00,68.8,67.0,28.26,SSE,159,0.0,2.0,94,0.00,,---,0.07,VWS V14.01,2013-07-15 15:23:00,
2013-07-15 10:28:00,68.6,66.5,28.26,SSE,159,0.0,0.0,93,0.00,,---,0.07,VWS V14.01,2013-07-15 15:28:00,
2013-07-15 10:33:00,68.7,66.9,28.27,SSE,159,0.0,0.0,94,0.00,,---,0.07,VWS V14.01,2013-07-15 15:33:00,
2013-07-15 10:38:00,68.8,67.0,28.27,SSE,159,0.0,0.0,94,0.00,,---,0.07,VWS V14.01,2013-07-15 15:38:00,
2013-07-15 10:44:00,68.8,67.0,28.27,SSE,159,1.0,2.0,94,0.00,,---,0.07,VWS V14.01,2013-07-15 15:44:00,
2013-07-15 10:49:00,68.5,66.7,28.27,South,175,1.0,3.0,94,0.00,,---,0.07,VWS V14.01,2013-07-15 15:49:00,
2013-07-15 10:54:00,68.2,66.4,28.27,South,179,0.0,0.0,94,0.00,,---,0.07,VWS V14.01,2013-07-15 15:54:00,
2013-07-15 10:59:00,68.3,66.5,28.27,South,178,0.0,0.0,94,0.00,,---,0.07,VWS V14.01,2013-07-15 15:59:00,
2013-07-15 11:04:00,68.6,66.8,28.27,WSW,242,1.0,7.0,94,0.00,,---,0.07,VWS V14.01,2013-07-15 16:04:00,
2013-07-15 11:09:00,68.6,66.8,28.27,West,260,0.0,2.0,94,0.00,,---,0.07,VWS V14.01,2013-07-15 16:09:00,
2013-07-15 11:15:00,68.5,66.4,28.27,SSE,158,0.0,1.0,93,0.00,,---,0.07,VWS V14.01,2013-07-15 16:15:00,
2013-07-15 11:20:00,68.5,66.4,28.27,SSE,159,0.0,0.0,93,0.00,,---,0.07,VWS V14.01,2013-07-15 16:20:00,
2013-07-15 11:25:00,68.5,66.4,28.27,SSE,159,0.0,1.0,93,0.00,,---,0.07,VWS V14.01,2013-07-15 16:25:00,
2013-07-15 11:30:00,68.6,66.5,28.27,SSE,159,0.0,0.0,93,0.00,,---,0.07,VWS V14.01,2013-07-15 16:30:00,
2013-07-15 11:35:00,68.5,66.4,28.27,SSE,157,0.0,5.0,93,0.00,,---,0.07,VWS V14.01,2013-07-15 16:35:00,
2013-07-15 11:40:00,68.4,66.0,28.27,SSW,205,1.0,3.0,92,0.00,,---,0.07,VWS V14.01,2013-07-15 16:40:00,
2013-07-15 11:45:00,68.3,66.2,28.27,SSW,205,0.0,0.0,93,0.00,,---,0.07,VWS V14.01,2013-07-15 16:45:00,
2013-07-15 11:50:00,68.2,66.1,28.27,SSW,200,2.0,3.0,93,0.00,,---,0.07,VWS V14.01,2013-07-15 16:50:00,
2013-07-15 11:56:00,68.0,65.9,28.27,SSW,200,0.0,0.0,93,0.00,,---,0.07,VWS V14.01,2013-07-15 16:56:00,
2013-07-15 12:01:00,67.7,65.3,28.27,SSE,163,0.0,1.0,92,0.00,,---,0.07,VWS V14.01,2013-07-15 17:01:00,
2013-07-15 12:06:00,67.6,65.5,28.27,SE,144,1.0,3.0,93,0.00,,---,0.07,VWS V14.01,2013-07-15 17:06:00,
2013-07-15 12:11:00,67.6,65.5,28.27,SSE,149,5.0,5.0,93,0.00,,---,0.07,VWS V14.01,2013-07-15 17:11:00,
2013-07-15 12:16:00,67.5,65.4,28.26,SSE,153,0.0,2.0,93,0.00,,---,0.07,VWS V14.01,2013-07-15 17:16:00,
2013-07-15 12:22:00,67.5,65.4,28.26,SSE,167,1.0,4.0,93,0.00,,---,0.07,VWS V14.01,2013-07-15 17:22:00,
2013-07-15 12:27:00,67.5,65.4,28.26,SSE,166,0.0,0.0,93,0.00,,---,0.07,VWS V14.01,2013-07-15 17:27:00,
2013-07-15 12:32:00,67.6,65.5,28.27,SSE,166,0.0,0.0,93,0.00,,---,0.07,VWS V14.01,2013-07-15 17:32:00,
2013-07-15 12:37:00,67.5,65.1,28.27,SSE,155,2.0,4.0,92,0.00,,---,0.07,VWS V14.01,2013-07-15 17:37:00,
2013-07-15 12:42:00,67.5,65.1,28.27,SSE,159,0.0,2.0,92,0.00,,---,0.07,VWS V14.01,2013-07-15 17:42:00,
2013-07-15 12:47:00,67.5,65.4,28.27,SSE,159,0.0,0.0,93,0.00,,---,0.07,VWS V14.01,2013-07-15 17:47:00,
2013-07-15 12:53:00,67.5,65.4,28.27,SSE,164,1.0,2.0,93,0.00,,---,0.07,VWS V14.01,2013-07-15 17:53:00,
2013-07-15 12:58:00,67.6,65.5,28.27,SSE,164,1.0,2.0,93,0.00,,---,0.07,VWS V14.01,2013-07-15 17:58:00,
2013-07-15 13:03:00,67.7,65.3,28.27,SSE,165,0.0,0.0,92,0.00,,---,0.07,VWS V14.01,2013-07-15 18:03:00,
2013-07-15 13:08:00,67.9,65.8,28.27,SSE,164,0.0,2.0,93,0.00,,---,0.07,VWS V14.01,2013-07-15 18:08:00,
2013-07-15 13:13:00,68.0,65.9,28.27,South,169,0.0,2.0,93,0.00,,---,0.07,VWS V14.01,2013-07-15 18:13:00,
2013-07-15 13:18:00,68.1,66.0,28.27,South,186,0.0,0.0,93,0.00,,---,0.07,VWS V14.01,2013-07-15 18:18:00,
2013-07-15 13:23:00,68.3,66.2,28.27,SW,230,0.0,2.0,93,0.00,,---,0.07,VWS V14.01,2013-07-15 18:23:00,
2013-07-15 13:29:00,68.4,66.0,28.27,SW,230,0.0,0.0,92,0.00,,---,0.07,VWS V14.01,2013-07-15 18:29:00,
2013-07-15 13:34:00,68.5,66.1,28.27,SW,227,0.0,0.0,92,0.00,,---,0.07,VWS V14.01,2013-07-15 18:34:00,
2013-07-15 13:39:00,68.6,66.2,28.27,SW,224,0.0,1.0,92,0.00,,---,0.07,VWS V14.01,2013-07-15 18:39:00,
2013-07-15 13:44:00,68.5,66.1,28.27,SW,222,0.0,0.0,92,0.00,,---,0.07,VWS V14.01,2013-07-15 18:44:00,
2013-07-15 13:50:00,68.6,66.5,28.27,SW,223,0.0,0.0,93,0.00,,---,0.07,VWS V14.01,2013-07-15 18:50:00,
2013-07-15 13:55:00,68.6,66.2,28.27,SW,222,0.0,1.0,92,0.00,,---,0.07,VWS V14.01,2013-07-15 18:55:00,
2013-07-15 14:00:00,68.5,66.1,28.27,SW,219,0.0,0.0,92,0.00,,---,0.07,VWS V14.01,2013-07-15 19:00:00,
2013-07-15 14:05:00,68.4,66.3,28.27,SW,219,0.0,0.0,93,0.00,,---,0.07,VWS V14.01,2013-07-15 19:05:00,
2013-07-15 14:10:00,68.3,66.2,28.27,WSW,239,0.0,5.0,93,0.00,,---,0.07,VWS V14.01,2013-07-15 19:10:00,
2013-07-15 14:15:00,68.3,66.2,28.27,WSW,238,0.0,0.0,93,0.00,,---,0.07,VWS V14.01,2013-07-15 19:15:00,
2013-07-15 14:20:00,68.2,66.1,28.26,SW,215,1.0,2.0,93,0.00,,---,0.07,VWS V14.01,2013-07-15 19:20:00,
2013-07-15 14:25:00,68.3,66.5,28.26,SW,215,0.0,2.0,94,0.00,,---,0.07,VWS V14.01,2013-07-15 19:25:00,
2013-07-15 14:30:00,68.3,66.8,28.26,SW,215,0.0,0.0,95,0.01,,---,0.08,VWS V14.01,2013-07-15 19:30:00,
2013-07-15 14:35:00,68.3,66.8,28.26,SSW,209,0.0,0.0,95,0.01,,---,0.08,VWS V14.01,2013-07-15 19:35:00,
2013-07-15 14:40:00,68.1,66.6,28.26,SSW,209,0.0,0.0,95,0.01,,---,0.08,VWS V14.01,2013-07-15 19:40:00,
2013-07-15 14:46:00,68.1,66.6,28.26,SSW,209,0.0,0.0,95,0.01,,---,0.08,VWS V14.01,2013-07-15 19:46:00,
2013-07-15 14:51:00,68.1,66.6,28.26,SSW,209,0.0,0.0,95,0.01,,---,0.08,VWS V14.01,2013-07-15 19:51:00,
2013-07-15 14:56:00,68.2,66.7,28.26,SSW,209,0.0,0.0,95,0.01,,---,0.08,VWS V14.01,2013-07-15 19:56:00,
2013-07-15 15:01:00,68.2,66.4,28.26,SSW,211,0.0,1.0,94,0.01,,---,0.08,VWS V14.01,2013-07-15 20:01:00,
2013-07-15 15:07:00,68.1,66.3,28.26,SSW,212,0.0,0.0,94,0.01,,---,0.08,VWS V14.01,2013-07-15 20:07:00,
2013-07-15 15:11:00,68.1,66.3,28.26,SSW,211,0.0,0.0,94,0.01,,---,0.08,VWS V14.01,2013-07-15 20:11:00,
2013-07-15 15:17:00,68.1,66.6,28.26,SSW,211,0.0,0.0,95,0.01,,---,0.08,VWS V14.01,2013-07-15 20:17:00,
2013-07-15 15:22:00,68.1,66.6,28.26,SSW,210,0.0,0.0,95,0.01,,---,0.08,VWS V14.01,2013-07-15 20:22:00,
2013-07-15 15:27:00,68.1,66.6,28.26,SSW,209,0.0,0.0,95,0.01,,---,0.08,VWS V14.01,2013-07-15 20:27:00,
2013-07-15 15:32:00,68.2,66.7,28.26,SSW,209,0.0,0.0,95,0.00,,---,0.08,VWS V14.01,2013-07-15 20:32:00,
2013-07-15 15:37:00,68.3,66.8,28.26,SSW,206,0.0,0.0,95,0.00,,---,0.08,VWS V14.01,2013-07-15 20:37:00,
2013-07-15 15:42:00,68.4,67.2,28.26,SSW,206,0.0,0.0,96,0.01,,---,0.09,VWS V14.01,2013-07-15 20:42:00,
2013-07-15 15:47:00,68.5,67.3,28.26,SSW,204,0.0,4.0,96,0.01,,---,0.09,VWS V14.01,2013-07-15 20:47:00,
2013-07-15 15:53:00,68.7,67.5,28.26,SSW,203,2.0,2.0,96,0.01,,---,0.09,VWS V14.01,2013-07-15 20:53:00,
2013-07-15 15:58:00,68.7,67.2,28.26,South,170,0.0,1.0,95,0.01,,---,0.09,VWS V14.01,2013-07-15 20:58:00,
2013-07-15 16:03:00,68.9,67.7,28.25,South,170,0.0,2.0,96,0.01,,---,0.09,VWS V14.01,2013-07-15 21:03:00,
2013-07-15 16:08:00,68.9,67.7,28.25,South,169,0.0,0.0,96,0.01,,---,0.09,VWS V14.01,2013-07-15 21:08:00,
2013-07-15 16:14:00,69.0,67.8,28.25,SSE,157,0.0,2.0,96,0.01,,---,0.09,VWS V14.01,2013-07-15 21:14:00,
2013-07-15 16:19:00,68.9,67.4,28.25,SSE,159,0.0,0.0,95,0.01,,---,0.09,VWS V14.01,2013-07-15 21:19:00,
2013-07-15 16:24:00,69.0,67.5,28.25,SSE,160,0.0,0.0,95,0.01,,---,0.09,VWS V14.01,2013-07-15 21:24:00,
2013-07-15 16:29:00,69.2,68.0,28.25,SSE,160,0.0,1.0,96,0.01,,---,0.09,VWS V14.01,2013-07-15 21:29:00,
2013-07-15 16:34:00,69.2,67.7,28.25,SSE,161,0.0,0.0,95,0.01,,---,0.09,VWS V14.01,2013-07-15 21:34:00,
2013-07-15 16:39:00,69.2,67.7,28.25,SSE,156,0.0,0.0,95,0.01,,---,0.09,VWS V14.01,2013-07-15 21:39:00,
2013-07-15 16:44:00,69.3,67.8,28.25,SSE,156,0.0,0.0,95,0.00,,---,0.09,VWS V14.01,2013-07-15 21:44:00,
2013-07-15 16:49:00,69.3,67.8,28.25,SSE,156,0.0,0.0,95,0.00,,---,0.09,VWS V14.01,2013-07-15 21:49:00,
2013-07-15 16:54:00,69.3,67.8,28.25,SSE,156,0.0,0.0,95,0.00,,---,0.09,VWS V14.01,2013-07-15 21:54:00,
2013-07-15 16:59:00,69.3,67.8,28.25,SSE,156,0.0,1.0,95,0.00,,---,0.09,VWS V14.01,2013-07-15 21:59:00,
2013-07-15 17:04:00,69.3,67.8,28.25,SSE,156,0.0,0.0,95,0.00,,---,0.09,VWS V14.01,2013-07-15 22:04:00,
2013-07-15 17:09:00,69.3,67.8,28.25,SSE,156,0.0,0.0,95,0.00,,---,0.09,VWS V14.01,2013-07-15 22:09:00,
2013-07-15 17:14:00,69.3,67.8,28.25,SSE,156,1.0,2.0,95,0.00,,---,0.09,VWS V14.01,2013-07-15 22:14:00,
2013-07-15 17:20:00,69.2,67.4,28.26,SSE,156,0.0,0.0,94,0.00,,---,0.09,VWS V14.01,2013-07-15 22:20:00,
2013-07-15 17:25:00,69.2,67.4,28.26,SSE,156,0.0,0.0,94,0.00,,---,0.09,VWS V14.01,2013-07-15 22:25:00,
2013-07-15 17:30:00,69.2,67.7,28.26,SSE,156,0.0,0.0,95,0.00,,---,0.09,VWS V14.01,2013-07-15 22:30:00,
2013-07-15 17:35:00,69.0,66.9,28.25,SSE,156,0.0,0.0,93,0.00,,---,0.09,VWS V14.01,2013-07-15 22:35:00,
2013-07-15 17:40:00,69.0,66.9,28.25,SSE,156,0.0,0.0,93,0.00,,---,0.09,VWS V14.01,2013-07-15 22:40:00,
2013-07-15 17:45:00,68.9,67.1,28.25,SSE,156,0.0,0.0,94,0.00,,---,0.09,VWS V14.01,2013-07-15 22:45:00,
2013-07-15 17:50:00,68.9,67.4,28.24,SSE,156,0.0,0.0,95,0.00,,---,0.09,VWS V14.01,2013-07-15 22:50:00,
2013-07-15 17:55:00,68.8,67.3,28.24,SSE,156,0.0,1.0,95,0.00,,---,0.09,VWS V14.01,2013-07-15 22:55:00,
2013-07-15 18:01:00,68.6,67.1,28.24,SSE,156,0.0,0.0,95,0.00,,---,0.09,VWS V14.01,2013-07-15 23:01:00,
2013-07-15 18:06:00,68.4,66.9,28.24,SSE,156,0.0,0.0,95,0.00,,---,0.09,VWS V14.01,2013-07-15 23:06:00,
2013-07-15 18:11:00,68.3,66.5,28.24,SSE,156,0.0,0.0,94,0.00,,---,0.09,VWS V14.01,2013-07-15 23:11:00,
2013-07-15 18:17:00,68.3,66.8,28.24,SSE,156,0.0,0.0,95,0.00,,---,0.09,VWS V14.01,2013-07-15 23:17:00,
2013-07-15 18:21:00,68.3,66.5,28.24,SSE,156,0.0,0.0,94,0.00,,---,0.09,VWS V14.01,2013-07-15 23:21:00,
2013-07-15 18:27:00,68.2,66.4,28.24,SSE,156,0.0,0.0,94,0.00,,---,0.09,VWS V14.01,2013-07-15 23:27:00,
2013-07-15 18:32:00,68.2,66.4,28.23,SSE,156,0.0,0.0,94,0.00,,---,0.09,VWS V14.01,2013-07-15 23:32:00,
2013-07-15 18:37:00,68.2,66.4,28.23,SSE,156,0.0,0.0,94,0.00,,---,0.09,VWS V14.01,2013-07-15 23:37:00,
2013-07-15 18:42:00,68.2,66.7,28.23,SSE,156,0.0,0.0,95,0.00,,---,0.09,VWS V14.01,2013-07-15 23:42:00,
2013-07-15 18:47:00,68.3,67.1,28.23,SSE,156,0.0,0.0,96,0.00,,---,0.09,VWS V14.01,2013-07-15 23:47:00,
2013-07-15 18:52:00,68.1,66.9,28.23,SSE,156,0.0,0.0,96,0.00,,---,0.09,VWS V14.01,2013-07-15 23:52:00,
2013-07-15 18:57:00,68.0,66.8,28.23,SSE,156,0.0,0.0,96,0.00,,---,0.09,VWS V14.01,2013-07-15 23:57:00,
2013-07-15 19:02:00,68.0,66.5,28.23,SSE,156,0.0,0.0,95,0.00,,---,0.09,VWS V14.01,2013-07-16 00:02:00,
2013-07-15 19:07:00,68.1,66.9,28.23,SSE,156,0.0,0.0,96,0.00,,---,0.09,VWS V14.01,2013-07-16 00:07:00,
2013-07-15 19:13:00,68.2,66.7,28.23,SSE,156,0.0,0.0,95,0.00,,---,0.09,VWS V14.01,2013-07-16 00:13:00,
2013-07-15 19:18:00,68.2,66.7,28.23,SSE,156,0.0,0.0,95,0.00,,---,0.09,VWS V14.01,2013-07-16 00:18:00,
2013-07-15 19:23:00,68.2,66.7,28.23,SSE,156,0.0,0.0,95,0.00,,---,0.09,VWS V14.01,2013-07-16 00:23:00,
2013-07-15 19:28:00,68.2,66.7,28.23,SSE,156,0.0,0.0,95,0.00,,---,0.09,VWS V14.01,2013-07-16 00:28:00,
2013-07-15 19:33:00,68.3,66.8,28.23,SSE,156,0.0,0.0,95,0.00,,---,0.09,VWS V14.01,2013-07-16 00:33:00,
2013-07-15 19:39:00,68.3,66.8,28.23,SSE,156,0.0,0.0,95,0.00,,---,0.09,VWS V14.01,2013-07-16 00:39:00,
2013-07-15 19:44:00,68.3,66.8,28.23,SSE,156,0.0,0.0,95,0.00,,---,0.09,VWS V14.01,2013-07-16 00:44:00,
2013-07-15 19:49:00,68.3,66.8,28.23,SSE,156,0.0,0.0,95,0.00,,---,0.09,VWS V14.01,2013-07-16 00:49:00,
2013-07-15 19:54:00,68.1,66.6,28.23,SSE,156,0.0,0.0,95,0.00,,---,0.09,VWS V14.01,2013-07-16 00:54:00,
2013-07-15 19:59:00,68.0,66.5,28.23,SSE,156,0.0,0.0,95,0.00,,---,0.09,VWS V14.01,2013-07-16 00:59:00,
2013-07-15 20:05:00,68.0,66.5,28.23,SSE,156,1.0,1.0,95,0.00,,---,0.09,VWS V14.01,2013-07-16 01:05:00,
2013-07-15 20:10:00,67.8,66.3,28.23,SSE,156,0.0,0.0,95,0.00,,---,0.09,VWS V14.01,2013-07-16 01:10:00,
2013-07-15 20:15:00,67.7,66.2,28.23,SSE,156,0.0,0.0,95,0.00,,---,0.09,VWS V14.01,2013-07-16 01:15:00,
2013-07-15 20:20:00,67.6,66.1,28.23,SSE,156,0.0,0.0,95,0.00,,---,0.09,VWS V14.01,2013-07-16 01:20:00,
2013-07-15 20:26:00,67.6,66.1,28.23,SSE,156,0.0,0.0,95,0.00,,---,0.09,VWS V14.01,2013-07-16 01:26:00,
2013-07-15 20:31:00,67.5,66.0,28.23,SSE,156,0.0,0.0,95,0.00,,---,0.09,VWS V14.01,2013-07-16 01:31:00,
2013-07-15 20:36:00,67.4,65.9,28.22,SSE,156,0.0,0.0,95,0.00,,---,0.09,VWS V14.01,2013-07-16 01:36:00,
2013-07-15 20:41:00,67.4,65.9,28.22,SSE,156,0.0,0.0,95,0.00,,---,0.09,VWS V14.01,2013-07-16 01:41:00,
2013-07-15 20:46:00,67.3,65.8,28.21,SSE,156,0.0,0.0,95,0.00,,---,0.09,VWS V14.01,2013-07-16 01:46:00,
2013-07-15 20:51:00,67.2,65.7,28.21,SSE,156,0.0,0.0,95,0.00,,---,0.09,VWS V14.01,2013-07-16 01:51:00,
2013-07-15 20:56:00,67.1,65.6,28.21,SSE,156,0.0,1.0,95,0.00,,---,0.09,VWS V14.01,2013-07-16 01:56:00,
2013-07-15 21:02:00,66.9,65.4,28.21,SSE,156,0.0,0.0,95,0.00,,---,0.09,VWS V14.01,2013-07-16 02:02:00,
2013-07-15 21:07:00,66.9,65.4,28.21,SSE,156,0.0,0.0,95,0.00,,---,0.09,VWS V14.01,2013-07-16 02:07:00,
2013-07-15 21:12:00,66.9,65.4,28.21,SSE,156,0.0,0.0,95,0.00,,---,0.09,VWS V14.01,2013-07-16 02:12:00,
2013-07-15 21:17:00,66.8,65.3,28.21,SSE,156,0.0,0.0,95,0.00,,---,0.09,VWS V14.01,2013-07-16 02:17:00,
2013-07-15 21:22:00,66.7,65.2,28.21,SSE,156,0.0,0.0,95,0.00,,---,0.09,VWS V14.01,2013-07-16 02:22:00,
2013-07-15 21:27:00,66.6,65.1,28.21,SSE,156,0.0,2.0,95,0.00,,---,0.09,VWS V14.01,2013-07-16 02:27:00,
2013-07-15 21:32:00,66.5,65.0,28.22,SSE,156,0.0,2.0,95,0.00,,---,0.09,VWS V14.01,2013-07-16 02:32:00,
2013-07-15 21:38:00,66.5,65.0,28.22,SSE,156,2.0,2.0,95,0.00,,---,0.09,VWS V14.01,2013-07-16 02:38:00,
2013-07-15 21:43:00,66.4,64.9,28.22,SSE,156,0.0,1.0,95,0.00,,---,0.09,VWS V14.01,2013-07-16 02:43:00,
2013-07-15 21:48:00,66.4,64.9,28.22,SSE,156,0.0,2.0,95,0.00,,---,0.09,VWS V14.01,2013-07-16 02:48:00,
2013-07-15 21:53:00,66.4,64.9,28.22,SSE,156,1.0,2.0,95,0.00,,---,0.09,VWS V14.01,2013-07-16 02:53:00,
2013-07-15 21:58:00,66.4,64.9,28.22,SSE,155,3.0,3.0,95,0.00,,---,0.09,VWS V14.01,2013-07-16 02:58:00,
2013-07-15 22:03:00,66.2,64.7,28.21,SSE,155,0.0,1.0,95,0.00,,---,0.09,VWS V14.01,2013-07-16 03:03:00,
2013-07-15 22:08:00,66.1,64.6,28.21,SSE,153,1.0,2.0,95,0.00,,---,0.09,VWS V14.01,2013-07-16 03:08:00,
2013-07-15 22:14:00,66.0,64.8,28.21,SE,131,0.0,4.0,96,0.00,,---,0.09,VWS V14.01,2013-07-16 03:14:00,
2013-07-15 22:19:00,65.9,64.7,28.21,SSE,150,3.0,3.0,96,0.00,,---,0.09,VWS V14.01,2013-07-16 03:19:00,
2013-07-15 22:24:00,66.1,64.9,28.21,SSE,161,4.0,6.0,96,0.00,,---,0.09,VWS V14.01,2013-07-16 03:24:00,
2013-07-15 22:29:00,66.1,64.9,28.21,SSE,164,1.0,4.0,96,0.00,,---,0.09,VWS V14.01,2013-07-16 03:29:00,
2013-07-15 22:34:00,66.1,64.9,28.21,SSE,167,1.0,2.0,96,0.00,,---,0.09,VWS V14.01,2013-07-16 03:34:00,
2013-07-15 22:40:00,66.0,64.8,28.21,SSE,153,0.0,0.0,96,0.00,,---,0.09,VWS V14.01,2013-07-16 03:40:00,
2013-07-15 22:45:00,65.9,64.7,28.21,SSE,163,3.0,3.0,96,0.00,,---,0.09,VWS V14.01,2013-07-16 03:45:00,
2013-07-15 22:50:00,65.8,64.3,28.21,SSE,155,3.0,4.0,95,0.00,,---,0.09,VWS V14.01,2013-07-16 03:50:00,
2013-07-15 22:55:00,65.6,63.8,28.21,SSE,155,2.0,3.0,94,0.00,,---,0.09,VWS V14.01,2013-07-16 03:55:00,
2013-07-15 23:00:00,65.5,63.7,28.21,South,173,0.0,0.0,94,0.00,,---,0.09,VWS V14.01,2013-07-16 04:00:00,
2013-07-15 23:01:00,65.5,63.7,28.22,SE,144,5.0,5.0,94,0.00,,---,0.09,VWS V14.01,2013-07-16 04:01:00,
2013-07-15 23:03:00,65.4,63.6,28.22,SSE,147,0.0,5.0,94,0.00,,---,0.09,VWS V14.01,2013-07-16 04:03:00,
2013-07-15 23:04:00,65.4,63.3,28.22,SE,141,3.0,7.0,93,0.00,,---,0.09,VWS V14.01,2013-07-16 04:04:00,
2013-07-15 23:09:00,65.3,63.2,28.22,SSE,156,1.0,2.0,93,0.00,,---,0.09,VWS V14.01,2013-07-16 04:09:00,
2013-07-15 23:14:00,65.2,63.1,28.22,SSE,152,3.0,4.0,93,0.00,,---,0.09,VWS V14.01,2013-07-16 04:14:00,
2013-07-15 23:20:00,65.1,63.0,28.22,SSE,162,2.0,5.0,93,0.00,,---,0.09,VWS V14.01,2013-07-16 04:20:00,
2013-07-15 23:25:00,65.0,62.6,28.22,SSE,153,2.0,4.0,92,0.00,,---,0.09,VWS V14.01,2013-07-16 04:25:00,
2013-07-15 23:30:00,64.9,62.8,28.22,SE,138,0.0,8.0,93,0.00,,---,0.09,VWS V14.01,2013-07-16 04:30:00,
2013-07-15 23:35:00,64.9,62.8,28.22,SSE,159,0.0,7.0,93,0.00,,---,0.09,VWS V14.01,2013-07-16 04:35:00,
2013-07-15 23:40:00,64.8,62.4,28.22,SE,145,3.0,4.0,92,0.00,,---,0.09,VWS V14.01,2013-07-16 04:40:00,
2013-07-15 23:46:00,64.7,62.6,28.22,South,175,5.0,8.0,93,0.00,,---,0.09,VWS V14.01,2013-07-16 04:46:00,
2013-07-15 23:51:00,64.9,62.5,28.22,ESE,121,3.0,4.0,92,0.00,,---,0.09,VWS V14.01,2013-07-16 04:51:00,
2013-07-15 23:56:00,64.8,62.4,28.22,SE,144,4.0,5.0,92,0.00,,---,0.09,VWS V14.01,2013-07-16 04:56:00,